Iron Mountain, MI

4:50 AM CDT on May 25, 2017 (GMT -0500)
Ford

Weather History for KIMT - October, 2014

Change the Weather History Date:

Thursday, October 30, 2014

  Actual Average Record
Temperature  
Mean Temperature 40 °F -  
Max Temperature 44 °F 51 °F 76 °F (1950)
Min Temperature 36 °F 29 °F 13 °F (1988)
Degree Days  
Heating Degree Days 25    
Moisture  
Dew Point 32 °F    
Average Humidity 75    
Maximum Humidity 86    
Minimum Humidity 65    
Precipitation  
Precipitation 0.00 in - - ()
Sea Level Pressure  
Sea Level Pressure 30.03 in    
Wind  
Wind Speed 4 mph (WNW)    
Max Wind Speed 16 mph    
Max Gust Speed 24 mph    
Visibility 10 miles    
Events Rain    
Averages and records for this station are not official NWS values.
T = Trace of Precipitation, MM = Missing Value Source: NWS Daily Summary

Daily Weather History Graph

Daily Weather History Graph

Search for Another Location

Airport or City:

Trip Planner

Search our weather history database for the weather conditions in past years. The results will help you decide how hot, cold, wet, or windy it might be!

Date:

Astronomy

Oct. 30, 2014 Rise Set
Actual Time 7:29 AM CDT 5:41 PM CDT
Civil Twilight 6:58 AM CDT 6:12 PM CDT
Nautical Twilight 6:23 AM CDT 6:47 PM CDT
Astronomical Twilight 5:49 AM CDT 7:22 PM CDT
Moon 1:34 PM CDT (10/30) 11:58 PM CDT (10/30)
Length of Visible Light 11h 13m
Length of Day
10h 11m
Waxing Crescent, 45% of the Moon is Illuminated
Oct 30
Waxing Crescent
Oct 30
First Quarter
Nov 6
Full
Nov 14
Last Quarter
Nov 22
New

Hourly Weather History & Observations

Time (CDT) Temp. Windchill Dew Point Humidity Pressure Visibility Wind Dir Wind Speed Gust Speed Precip Events Conditions
12:54 AM 37.9 °F - 34.0 °F 86% 30.09 in 10.0 mi Calm Calm - N/A   Overcast
1:03 AM 39.0 °F - 33.1 °F 79% 30.05 in 10.0 mi Calm Calm - N/A   Overcast
1:54 AM 37.9 °F - 33.1 °F 83% 30.09 in 10.0 mi Calm Calm - N/A   Overcast
2:54 AM 37.9 °F - 33.1 °F 83% 30.08 in 10.0 mi Calm Calm - N/A   Overcast
3:54 AM 39.9 °F - 32.0 °F 73% 30.07 in 10.0 mi Calm Calm - N/A   Overcast
4:54 AM 39.0 °F - 33.1 °F 79% 30.07 in 10.0 mi Calm Calm - N/A   Overcast
5:54 AM 39.0 °F - 33.1 °F 79% 30.07 in 10.0 mi Calm Calm - N/A   Overcast
6:54 AM 39.0 °F - 33.1 °F 79% 30.07 in 10.0 mi Calm Calm - N/A   Overcast
7:54 AM 39.0 °F - 34.0 °F 82% 30.07 in 10.0 mi Calm Calm - N/A   Overcast
8:54 AM 39.9 °F 37.8 °F 33.1 °F 77% 30.07 in 10.0 mi West 3.5 mph - N/A   Overcast
9:54 AM 39.9 °F 34.5 °F 33.1 °F 77% 30.07 in 10.0 mi WNW 8.1 mph - N/A   Overcast
10:54 AM 41.0 °F - 32.0 °F 70% 30.06 in 10.0 mi Calm Calm - N/A   Overcast
11:54 AM 41.0 °F 36.4 °F 32.0 °F 70% 30.06 in 10.0 mi WNW 6.9 mph - N/A   Overcast
12:54 PM 42.1 °F 37.1 °F 32.0 °F 67% 30.04 in 10.0 mi West 8.1 mph - N/A   Overcast
1:54 PM 43.0 °F 38.8 °F 32.0 °F 65% 30.02 in 10.0 mi WSW 6.9 mph - N/A   Overcast
2:54 PM 44.1 °F 40.1 °F 33.1 °F 65% 30.01 in 10.0 mi NW 6.9 mph - 0.00 in   Overcast
3:54 PM 43.0 °F 36.8 °F 32.0 °F 65% 30.01 in 10.0 mi NW 11.5 mph - N/A   Overcast
4:18 PM 43.0 °F 37.7 °F 32.0 °F 65% 29.98 in 10.0 mi NW 9.2 mph - N/A   Mostly Cloudy
4:54 PM 42.1 °F 35.7 °F 30.9 °F 65% 30.02 in 10.0 mi WNW 11.5 mph - N/A   Mostly Cloudy
5:54 PM 41.0 °F 37.1 °F 32.0 °F 70% 30.02 in 10.0 mi NW 5.8 mph - N/A   Overcast
6:54 PM 41.0 °F 35.8 °F 30.9 °F 67% 30.03 in 10.0 mi WNW 8.1 mph - N/A   Overcast
7:27 PM 39.9 °F 34.5 °F 30.9 °F 70% 29.99 in 10.0 mi WNW 8.1 mph - N/A   Overcast
7:54 PM 39.9 °F 33.9 °F 30.9 °F 70% 30.02 in 10.0 mi WNW 9.2 mph - N/A   Overcast
8:54 PM 39.0 °F 33.4 °F 32.0 °F 76% 30.01 in 10.0 mi WNW 8.1 mph - N/A   Overcast
9:05 PM 39.0 °F 32.3 °F 32.0 °F 76% 29.97 in 10.0 mi WNW 10.4 mph - N/A   Overcast
9:22 PM 39.0 °F 32.3 °F 32.0 °F 76% 29.97 in 10.0 mi WNW 10.4 mph - N/A   Overcast
9:54 PM 37.9 °F 28.9 °F 33.1 °F 83% 30.02 in 10.0 mi NNW 16.1 mph - 0.00 in Rain Light Rain
10:23 PM 37.0 °F 28.9 °F 32.0 °F 82% 29.98 in 10.0 mi NW 12.7 mph 24.2 mph 0.00 in Rain Light Rain
10:54 PM 36.0 °F 27.1 °F 30.9 °F 82% 30.03 in 10.0 mi NNW 13.8 mph - 0.00 in Rain Light Rain
11:10 PM 36.0 °F 27.1 °F 30.9 °F 82% 29.99 in 10.0 mi NW 13.8 mph - 0.00 in   Overcast
11:54 PM 36.0 °F 28.0 °F 30.9 °F 82% 30.04 in 10.0 mi NNW 11.5 mph - 0.00 in   Overcast